Stations météo

réclame
Mon MeteoGroup
Satenas, Suède (2520): Température de l'air & dewpoint: 13.06.2019 07:00:00 - 19.06.2019 07:00:00 (CEST)Satenas, Suède (2520): water temperature: 13.06.2019 07:00:00 - 19.06.2019 07:00:00 (CEST)Satenas, Suède (2520): Vitesse du vent & gusts: 13.06.2019 07:00:00 - 19.06.2019 07:00:00 (CEST)Satenas, Suède (2520): Direction du vent: 13.06.2019 07:00:00 - 19.06.2019 07:00:00 (CEST)Satenas, Suède (2520): reduced air pressure: 13.06.2019 07:00:00 - 19.06.2019 07:00:00 (CEST)Satenas, Suède (2520): visibility: 13.06.2019 07:00:00 - 19.06.2019 07:00:00 (CEST)Satenas, Suède (2520): Quantités de précipitations: 13.06.2019 07:00:00 - 19.06.2019 07:00:00 (CEST)
Date & Time tt [°C] td [°C] tw [°C] ff [km/h] ff [knt] fx [km/h] fx [knt] dd ppp [hPa] vv [km] rr [mm]
19.06.2019 07:00:00 15,0 15,0 - 2 1 - - SE - 10 -
19.06.2019 06:00:00 14,1 14,1 - 5 3 11 6 SSE 1012,2 9 0,0
19.06.2019 05:00:00 12,0 12,0 - 4 2 7 4 E 1012,2 9 0,0
19.06.2019 04:00:00 12,4 12,2 - 5 3 7 4 S 1012,4 10 0,0
19.06.2019 03:00:00 14,3 14,1 - 8 4 11 6 SSW 1012,4 10 0,0
19.06.2019 02:00:00 14,6 14,3 - 8 4 11 6 SSW 1012,5 10 0,0
19.06.2019 01:00:00 15,7 15,1 - 11 6 14 8 S 1012,5 10 0,0
19.06.2019 00:00:00 15,5 14,9 - 8 4 11 6 SSE 1012,6 10 0,0
18.06.2019 23:00:00 16,7 15,7 - 8 4 11 6 S 1012,8 10 0,0
18.06.2019 22:00:00 17,6 17,0 - 8 4 11 6 SSE 1013,0 10 0,0
18.06.2019 21:00:00 18,1 17,1 - 2 1 7 4 SSE 1013,0 10 0,0
18.06.2019 20:00:00 18,3 16,6 - 8 4 14 8 W 1013,2 10 0,0
18.06.2019 19:00:00 19,0 16,0 - 9 5 25 14 WSW 1013,3 10 0,0
18.06.2019 18:00:00 19,4 17,0 - 21 11 32 18 W 1013,6 10 0,0
18.06.2019 17:00:00 20,3 17,1 - 22 12 36 19 WNW 1014,0 10 0,0
18.06.2019 16:00:00 22,6 17,5 - 21 11 25 14 WSW 1014,0 10 0,0
18.06.2019 15:00:00 21,8 17,8 - 22 12 29 16 WSW 1014,4 10 0,0
18.06.2019 14:00:00 20,5 17,9 - 13 7 36 19 WNW 1015,1 10 0,0
18.06.2019 13:00:00 19,9 17,5 - 16 9 25 14 SW 1015,5 10 0,0
18.06.2019 12:00:00 18,4 17,2 - 16 9 25 14 S 1015,8 10 0,0
18.06.2019 11:00:00 16,6 16,4 - 11 6 14 8 SSE 1016,4 10 0,1
18.06.2019 10:00:00 16,0 16,0 - 8 4 - - SSW - 10 -
18.06.2019 09:00:00 15,5 15,0 - 16 9 22 12 W 1017,5 7 2,0
18.06.2019 08:00:00 17,3 15,5 - 13 7 18 10 S 1016,8 10 0,0
18.06.2019 07:00:00 14,5 13,9 - 13 7 18 10 S 1017,4 10 0,0
18.06.2019 06:00:00 12,8 12,6 - 9 5 14 8 SSE 1017,8 10 0,0
18.06.2019 05:00:00 11,4 11,4 - 9 5 14 8 S 1018,2 10 0,0
18.06.2019 04:00:00 11,0 10,8 - 9 5 14 8 S 1018,3 10 0,0
18.06.2019 03:00:00 11,3 11,1 - 13 7 14 8 S 1018,5 10 0,0
18.06.2019 02:00:00 11,7 11,2 - 11 6 14 8 S 1018,5 10 0,0
18.06.2019 01:00:00 12,3 11,4 - 13 7 22 12 SSW 1018,6 10 0,0
18.06.2019 00:00:00 15,2 12,9 - 15 8 32 18 WSW 1018,5 10 0,0
17.06.2019 23:00:00 15,9 12,8 - 18 10 32 18 SW 1018,1 10 0,0
17.06.2019 22:00:00 16,7 12,0 - 21 11 36 19 WSW 1018,3 10 0,0
17.06.2019 21:00:00 17,7 12,6 - 26 14 40 21 WSW 1018,2 10 0,0
17.06.2019 20:00:00 18,0 14,3 - 22 12 36 19 WSW 1018,1 10 0,0
17.06.2019 19:00:00 18,7 14,2 - 24 13 32 18 WSW 1018,2 10 0,0
17.06.2019 18:00:00 19,1 13,7 - 15 8 29 16 W 1018,1 10 0,0
17.06.2019 17:00:00 19,6 13,3 - 21 11 32 18 W 1018,2 10 0,0
17.06.2019 16:00:00 19,0 13,0 - 22 12 32 18 W 1018,5 10 0,0
17.06.2019 15:00:00 19,7 12,5 - 26 14 36 19 WSW 1018,5 10 0,0
17.06.2019 14:00:00 19,6 12,4 - 26 14 36 19 WSW 1018,4 10 0,0
17.06.2019 13:00:00 19,3 11,1 - 24 13 36 19 WSW 1018,3 10 0,0
17.06.2019 12:00:00 18,6 10,2 - 26 14 36 19 WSW 1018,5 10 0,0
17.06.2019 11:00:00 17,8 10,2 - 26 14 36 19 WSW 1018,4 10 0,0
17.06.2019 10:00:00 16,9 11,4 - 21 11 36 19 SW 1018,4 10 0,0
17.06.2019 09:00:00 15,5 12,3 - 22 12 29 16 SW 1018,3 10 0,0
17.06.2019 08:00:00 13,8 12,5 - 22 12 29 16 SW 1018,3 30 0,0
17.06.2019 07:00:00 12,4 12,2 - 18 10 25 14 SSW 1018,2 10 0,0
17.06.2019 06:00:00 11,2 11,2 - 16 9 22 12 SSW 1018,3 10 0,0
17.06.2019 05:00:00 10,4 10,4 - 15 8 22 12 SSW 1018,3 7 0,0
17.06.2019 04:00:00 9,7 9,7 - 15 8 18 10 SSW 1018,2 8 0,0
17.06.2019 03:00:00 10,6 10,4 - 13 7 18 10 SSW 1018,0 10 0,0
17.06.2019 02:00:00 11,3 11,1 - 13 7 18 10 SSW 1018,0 10 0,0
17.06.2019 01:00:00 11,8 11,3 - 11 6 14 8 SSW 1017,8 10 0,0
17.06.2019 00:00:00 12,6 11,7 - 11 6 29 16 SW 1017,7 10 0,0
16.06.2019 23:00:00 15,4 13,2 - 21 11 29 16 WSW 1017,3 10 0,0
16.06.2019 22:00:00 15,7 12,3 - 15 8 25 14 W 1017,0 10 0,0
16.06.2019 21:00:00 16,5 11,4 - 21 11 32 18 W 1016,7 10 0,0
16.06.2019 20:00:00 17,7 9,8 - 24 13 32 18 WSW 1016,9 10 0,0
16.06.2019 19:00:00 18,0 10,9 - 21 11 32 18 W 1016,5 10 0,0
16.06.2019 18:00:00 18,6 13,2 - 22 12 29 16 W 1016,6 10 0,0
16.06.2019 17:00:00 17,1 15,6 - 24 13 32 18 WSW 1016,5 10 0,0
16.06.2019 16:00:00 17,6 15,9 - 21 11 29 16 WSW 1016,1 10 0,0
16.06.2019 15:00:00 17,3 16,7 - 15 8 25 14 SW 1015,8 10 0,0
16.06.2019 14:00:00 17,1 16,8 - 16 9 25 14 SSW 1015,4 10 0,0
16.06.2019 13:00:00 17,6 15,9 - 21 11 25 14 SW 1015,0 10 0,0
16.06.2019 12:00:00 19,4 16,1 - 15 8 18 10 SW 1014,3 10 0,0
16.06.2019 11:00:00 19,4 15,1 - 11 6 18 10 S 1014,1 10 0,0
16.06.2019 10:00:00 19,2 15,3 - 8 4 14 8 SSE 1013,9 10 0,0
16.06.2019 09:00:00 18,3 14,6 - 9 5 18 10 SE 1013,7 10 0,0
16.06.2019 08:00:00 18,2 13,9 - 13 7 14 8 SE 1013,3 10 0,0
16.06.2019 07:00:00 17,1 13,4 - 9 5 18 10 SE 1013,2 10 0,0
16.06.2019 06:00:00 16,8 12,7 - 13 7 18 10 SE 1013,2 10 0,0
16.06.2019 05:00:00 15,0 13,0 - 9 5 14 8 SE 1013,2 10 0,0
16.06.2019 04:00:00 15,3 14,2 - 11 6 14 8 SE 1013,3 10 0,0
16.06.2019 03:00:00 15,8 15,2 - 0 0 7 4 N 1013,7 10 0,0
16.06.2019 02:00:00 15,8 15,2 - 4 2 7 4 E 1013,9 10 0,0
16.06.2019 01:00:00 16,0 15,0 - 4 2 7 4 SE 1014,0 10 0,0
16.06.2019 00:00:00 16,8 15,0 - 4 2 11 6 W 1014,1 10 0,0
15.06.2019 23:00:00 17,7 15,5 - 8 4 7 4 W 1013,9 10 0,0
15.06.2019 22:00:00 18,6 16,6 - 0 0 14 8 N 1013,7 10 0,0
15.06.2019 21:00:00 19,6 16,6 - 9 5 14 8 SSW 1014,1 10 0,0
15.06.2019 20:00:00 20,4 14,7 - 13 7 22 12 ENE 1013,8 10 0,0
15.06.2019 19:00:00 21,3 14,7 - 13 7 22 12 ENE 1013,9 10 0,0
15.06.2019 18:00:00 21,9 16,0 - 13 7 18 10 ENE 1014,4 10 0,0
15.06.2019 17:00:00 22,9 17,1 - 11 6 18 10 ENE 1015,1 10 0,0
15.06.2019 16:00:00 23,1 16,6 - 13 7 22 12 NE 1015,2 10 0,0
15.06.2019 15:00:00 22,5 16,3 - 15 8 25 14 N 1015,8 10 0,0
15.06.2019 14:00:00 23,5 16,8 - 13 7 25 14 NE 1016,3 10 0,0
15.06.2019 13:00:00 23,6 16,4 - 15 8 25 14 NE 1016,3 10 0,0
15.06.2019 12:00:00 23,1 16,2 - 15 8 22 12 ENE 1017,0 10 0,0
15.06.2019 11:00:00 20,2 16,6 - 11 6 18 10 N 1017,6 10 0,0
15.06.2019 10:00:00 21,9 14,0 - 13 7 18 10 ENE 1017,7 10 0,0
15.06.2019 09:00:00 19,1 17,1 - 9 5 14 8 NNE 1018,1 10 0,0
15.06.2019 08:00:00 18,5 16,1 - 5 3 7 4 NE 1018,3 10 0,0
15.06.2019 07:00:00 17,3 16,3 - 0 0 14 8 N 1018,8 10 0,0
15.06.2019 06:00:00 13,8 13,8 - 11 6 14 8 NE 1018,9 10 0,0
15.06.2019 05:00:00 11,9 11,9 - 0 0 7 4 N 1019,5 10 0,0
15.06.2019 04:00:00 10,9 10,6 - 5 3 7 4 E 1019,5 10 0,0
15.06.2019 03:00:00 14,0 13,4 - 4 2 7 4 N 1019,6 10 0,0
15.06.2019 02:00:00 13,9 13,4 - 0 0 7 4 N 1019,7 10 0,0
15.06.2019 01:00:00 14,3 13,7 - 5 3 7 4 SE 1019,6 10 0,0
15.06.2019 00:00:00 14,7 13,7 - 4 2 7 4 NNE 1019,4 10 0,0
14.06.2019 23:00:00 16,0 13,8 - 0 0 7 4 N 1019,5 10 0,0
14.06.2019 22:00:00 17,4 12,7 - 0 0 7 4 N 1018,9 10 0,0
14.06.2019 21:00:00 19,6 12,1 - 5 3 7 4 W 1018,9 10 0,0
14.06.2019 20:00:00 20,4 12,1 - 2 1 7 4 - 1018,7 10 0,0
14.06.2019 19:00:00 20,6 13,6 - 0 0 11 6 N 1018,5 10 0,0
14.06.2019 18:00:00 20,6 14,3 - 5 3 7 4 NNE 1018,3 10 0,0
14.06.2019 17:00:00 20,8 13,0 - 4 2 7 4 - 1018,7 10 0,0
14.06.2019 16:00:00 20,6 13,8 - 4 2 29 16 - 1018,8 10 0,5
14.06.2019 15:00:00 18,9 13,5 - 9 5 29 16 SW 1019,2 10 1,0
14.06.2019 14:00:00 20,2 14,6 - 8 4 14 8 - 1018,8 10 0,0
14.06.2019 13:00:00 19,1 15,6 - 8 4 18 10 NNW 1019,0 10 0,0
14.06.2019 12:00:00 19,3 14,3 - 9 5 22 12 S 1018,8 10 0,0
14.06.2019 11:00:00 18,7 15,5 - 11 6 22 12 SSE 1018,5 10 0,0
14.06.2019 10:00:00 15,8 15,3 - 0 0 11 6 N 1018,4 10 0,0
14.06.2019 09:00:00 14,5 14,2 - 8 4 11 6 SE 1018,2 10 0,2
14.06.2019 08:00:00 14,0 13,7 - 8 4 11 6 ESE 1017,8 10 0,0
14.06.2019 07:00:00 13,8 13,6 - 8 4 14 8 S 1017,8 10 0,0
14.06.2019 06:00:00 13,3 13,3 - 2 1 14 8 - 1017,7 10 0,0
14.06.2019 05:00:00 10,9 10,9 - 0 0 7 4 N 1017,4 10 0,0
14.06.2019 04:00:00 10,7 10,7 - 5 3 11 6 ESE 1016,9 10 0,0
14.06.2019 03:00:00 11,0 11,0 - 11 6 14 8 ESE 1017,1 10 0,0
14.06.2019 02:00:00 10,6 10,4 - 9 5 11 6 E 1016,6 10 0,0
14.06.2019 01:00:00 11,6 11,4 - 8 4 11 6 E 1016,7 10 0,0
14.06.2019 00:00:00 12,3 11,8 - 9 5 11 6 E 1016,7 10 0,0
13.06.2019 23:00:00 12,6 12,1 - 9 5 11 6 E 1016,4 10 0,0
13.06.2019 22:00:00 14,5 13,4 - 2 1 7 4 - 1015,8 10 0,0
13.06.2019 21:00:00 16,5 14,0 - 5 3 11 6 ENE 1015,1 10 0,0
13.06.2019 20:00:00 17,7 13,8 - 9 5 11 6 N 1014,7 10 0,0
13.06.2019 19:00:00 19,0 14,0 - 8 4 - - NNW - 10 -
13.06.2019 18:00:00 19,0 14,3 - 9 5 14 8 WNW 1013,8 10 0,0
13.06.2019 17:00:00 18,7 15,0 - 11 6 18 10 WNW 1013,5 10 0,0
13.06.2019 16:00:00 18,5 15,7 - 15 8 22 12 W 1013,2 10 0,0
13.06.2019 15:00:00 18,5 15,4 - 18 10 25 14 WSW 1012,9 10 0,0
13.06.2019 14:00:00 18,5 15,7 - 21 11 25 14 WSW 1012,6 10 0,0
13.06.2019 13:00:00 17,4 16,4 - 18 10 29 16 SW 1012,1 10 0,0
13.06.2019 12:00:00 17,2 16,6 - 13 7 22 12 SW 1011,0 10 0,0
13.06.2019 11:00:00 16,8 16,8 15,0 15 8 22 12 SSW 1010,7 10 0,0
13.06.2019 10:00:00 16,2 16,0 - 16 9 25 14 S 1010,0 10 0,0
13.06.2019 09:00:00 16,2 16,0 - 15 8 25 14 S 1009,3 10 0,0
13.06.2019 08:00:00 14,4 14,4 - 13 7 25 14 SSE 1009,3 10 0,0
13.06.2019 07:00:00 13,0 13,0 - 16 9 25 14 SE 1009,3 8 0,0

tt = Température de l'air
td = dewpoint
tw = water temperature
ff = Vitesse du vent
fx = gusts
dd = Direction du vent
ppp = reduced air pressure
vv = visibility
rr = Quantités de précipitations

stations d'obs. à proximité